FW5661 Weather Reports


time (UTC)temp
C
wind
direction
speed
KPH
gust
KPH
rain 1hr
cm
rain 24hr
cm
rain mn
cm
humidity
%
barometer
mb
20260506140045 11 255 3.2 4.8 0.00 0.00 0.00 88 1020.0
20260506134549 11 240 4.8 6.4 0.00 0.00 0.00 89 1019.9
20260506133041 10 252 3.2 8.0 0.00 0.00 0.00 89 1019.6
20260506131552 10 281 3.2 6.4 0.00 0.00 0.00 88 1019.6
20260506130100 10 279 4.8 9.7 0.00 0.00 0.00 88 1019.6
20260506124552 10 269 4.8 9.7 0.00 0.00 0.00 88 1019.4
20260506123043 11 287 4.8 8.0 0.00 0.00 0.00 88 1019.5
20260506121541 11 0 0.0 0.0 0.00 0.00 0.00 88 1019.4
20260506120101 11 0 0.0 3.2 0.00 0.00 0.00 88 1019.4
20260506114546 11 22 3.2 6.4 0.00 0.00 0.00 88 1019.3
20260506113052 11 19 3.2 11.3 0.00 0.00 0.00 88 1019.3
20260506111542 11 0 0.0 0.0 0.00 0.00 0.00 86 1018.9
20260506110057 11 0 0.0 4.8 0.00 0.00 0.00 87 1018.7
20260506104552 11 256 4.8 8.0 0.00 0.00 0.00 87 1018.6
20260506103053 11 259 0.0 4.8 0.00 0.00 0.00 88 1018.6
20260506101555 11 259 3.2 6.4 0.00 0.00 0.00 88 1018.6
20260506100105 11 260 4.8 6.4 0.00 0.00 0.00 87 1018.4
20260506094544 11 257 3.2 4.8 0.00 0.00 0.00 87 1018.2
20260506093049 11 252 3.2 6.4 0.00 0.00 0.00 87 1018.3
20260506091546 11 258 3.2 6.4 0.00 0.00 0.00 87 1018.3
20260506090046 11 269 1.6 6.4 0.00 0.00 0.00 86 1018.6
20260506084604 12 275 3.2 4.8 0.00 0.00 0.00 86 1018.7
20260506083048 12 1 1.6 6.4 0.00 0.00 0.00 85 1018.8
20260506081552 12 11 3.2 8.0 0.00 0.00 0.00 84 1018.7
20260506073047 13 6 1.6 6.4 0.00 0.00 0.00 82 1018.4
20260506071550 13 1 3.2 6.4 0.00 0.00 0.00 84 1018.2
20260506061542 14 0 0.0 0.0 0.00 0.00 0.00 83 1017.4
20260506044629 15 0 0.0 0.0 0.00 0.00 0.00 81 1016.7
20260506043047 15 0 0.0 0.0 0.00 0.00 0.00 80 1016.6
20260506041558 15 360 0.0 4.8 0.00 0.00 0.00 79 1016.5
20260506040047 15 360 1.6 4.8 0.00 0.00 0.00 79 1016.2
20260506034619 16 0 0.0 1.6 0.00 0.00 0.00 78 1016.2
20260506033043 16 360 1.6 6.4 0.00 0.00 0.00 77 1016.0
20260506031544 16 360 3.2 6.4 0.00 0.00 0.00 75 1015.7
20260506030045 17 360 1.6 4.8 0.00 0.00 0.00 74 1015.5
20260506024548 17 360 3.2 4.8 0.00 0.00 0.00 75 1015.3
20260506023101 17 360 3.2 4.8 0.00 0.00 0.00 73 1015.3
20260506021540 18 360 3.2 4.8 0.00 0.00 0.00 73 1015.2
20260506020047 17 360 1.6 6.4 0.00 0.00 0.00 71 1015.3
20260506014544 17 360 1.6 6.4 0.00 0.00 0.00 71 1015.2
20260506013043 17 360 4.8 9.7 0.00 0.00 0.00 70 1015.4
20260506011603 17 360 4.8 9.7 0.00 0.00 0.00 70 1015.5
20260506010056 17 360 1.6 6.4 0.00 0.00 0.00 70 1015.4
20260506004602 17 360 3.2 6.4 0.00 0.00 0.00 69 1015.4
20260506003056 17 360 3.2 6.4 0.00 0.00 0.00 69 1015.4
20260506001543 17 360 3.2 9.7 0.00 0.00 0.00 68 1015.4
20260506000047 18 360 6.4 11.3 0.00 0.00 0.00 67 1015.2
20260505234614 18 360 4.8 11.3 0.00 0.00 0.00 66 1015.1
20260505233045 18 360 6.4 12.9 0.00 0.00 0.00 68 1015.2
20260505231545 18 360 3.2 14.5 0.00 0.00 0.00 67 1015.3
20260505230050 18 360 4.8 9.7 0.00 0.00 0.00 67 1015.3
20260505224552 18 360 4.8 12.9 0.00 0.00 0.00 67 1015.4
20260505223049 18 360 3.2 12.9 0.00 0.00 0.00 66 1015.4
20260505221544 17 360 4.8 12.9 0.00 0.00 0.00 67 1015.4
20260505220057 17 360 6.4 12.9 0.00 0.00 0.00 67 1015.5
20260505214541 17 360 6.4 11.3 0.00 0.00 0.00 69 1015.7
20260505213052 17 360 6.4 12.9 0.00 0.00 0.00 68 1015.8
20260505211551 17 360 9.7 14.5 0.00 0.00 0.00 65 1015.8
20260505210045 17 360 11.3 16.1 0.00 0.00 0.00 67 1015.7
20260505204552 17 360 4.8 11.3 0.00 0.00 0.00 68 1015.7
20260505203042 17 360 6.4 11.3 0.00 0.00 0.00 65 1015.8
20260505201547 16 0 0.0 8.0 0.00 0.00 0.00 67 1015.8
20260505200045 16 360 6.4 9.7 0.00 0.00 0.00 67 1015.8
20260505194547 16 360 4.8 11.3 0.00 0.00 0.00 65 1015.8
20260505193047 16 360 3.2 9.7 0.00 0.00 0.00 66 1015.9
20260505191552 16 360 1.6 6.4 0.00 0.00 0.00 65 1015.9
20260505190045 16 360 1.6 9.7 0.00 0.00 0.00 65 1015.9
20260505184545 17 0 1.6 6.4 0.00 0.00 0.00 65 1015.7
20260505183045 15 0 0.0 4.8 0.00 0.00 0.00 72 1015.8
20260505181546 15 360 1.6 9.7 0.00 0.00 0.00 72 1015.6
20260505180058 15 360 3.2 6.4 0.00 0.00 0.00 75 1015.7
20260505174606 15 291 4.8 8.0 0.00 0.00 0.00 77 1015.6
20260505173046 14 0 1.6 8.0 0.00 0.00 0.00 77 1015.6
20260505171554 13 43 3.2 6.4 0.00 0.00 0.00 79 1015.5
20260505170126 13 43 1.6 6.4 0.00 0.00 0.00 79 1015.6
20260505164549 13 43 1.6 6.4 0.00 0.00 0.00 80 1015.5
20260505163046 13 43 4.8 8.0 0.00 0.00 0.00 80 1015.5
20260505161556 13 1 0.0 4.8 0.00 0.00 0.00 81 1015.4
20260505153055 13 28 3.2 6.4 0.00 0.00 0.00 83 1015.1
20260505151549 13 0 0.0 0.0 0.00 0.00 0.00 85 1014.8